| time (UTC) | temp F | wind direction | speed knots | gust knots | rain 1hr in | rain 24hr in | rain mn in | humidity % | barometer mb |
| 20260508110729 | 58 | 333 | 9.6 | 19.1 | 0.00 | 0.00 | 0.00 | 24 | 1026.3 |
| 20260508104729 | 55 | 355 | 10.4 | 15.6 | 0.00 | 0.00 | 0.00 | 24 | 1026.3 |
| 20260508102729 | 55 | 10 | 11.3 | 17.4 | 0.00 | 0.00 | 0.00 | 25 | 1026.2 |
| 20260508100728 | 56 | 341 | 9.6 | 20.9 | 0.00 | 0.00 | 0.00 | 26 | 1026.2 |
| 20260508094728 | 55 | 19 | 8.7 | 19.1 | 0.00 | 0.00 | 0.00 | 28 | 1026.1 |
| 20260508092728 | 55 | 358 | 8.7 | 17.4 | 0.00 | 0.00 | 0.00 | 28 | 1026.1 |
| 20260508090728 | 55 | 18 | 12.2 | 18.2 | 0.00 | 0.00 | 0.00 | 30 | 1026.2 |
| 20260508084728 | 52 | 350 | 9.6 | 13.9 | 0.00 | 0.00 | 0.00 | 31 | 1026.2 |
| 20260508082728 | 53 | 6 | 9.6 | 15.6 | 0.00 | 0.00 | 0.00 | 34 | 1026.3 |
| 20260508074728 | 52 | 20 | 11.3 | 16.5 | 0.00 | 0.00 | 0.00 | 33 | 1026.0 |
| 20260508072728 | 51 | 14 | 10.4 | 14.8 | 0.00 | 0.00 | 0.00 | 34 | 1025.9 |
| 20260508070729 | 50 | 360 | 10.4 | 14.8 | 0.00 | 0.00 | 0.00 | 36 | 1025.7 |
| 20260508064728 | 49 | 2 | 11.3 | 16.5 | 0.00 | 0.00 | 0.00 | 38 | 1025.6 |
| 20260508062727 | 48 | 359 | 10.4 | 13.9 | 0.00 | 0.00 | 0.00 | 40 | 1025.4 |
| 20260508060728 | 47 | 341 | 12.2 | 16.5 | 0.00 | 0.00 | 0.00 | 44 | 1025.2 |
| 20260508054728 | 47 | 350 | 9.6 | 13.9 | 0.00 | 0.00 | 0.00 | 46 | 1025.0 |
| 20260508052728 | 45 | 348 | 8.7 | 11.3 | 0.00 | 0.00 | 0.00 | 50 | 1024.8 |
| 20260508050728 | 44 | 349 | 8.7 | 12.2 | 0.00 | 0.00 | 0.00 | 52 | 1024.6 |
| 20260508044727 | 42 | 348 | 7.8 | 10.4 | 0.00 | 0.00 | 0.00 | 54 | 1024.5 |
| 20260508042727 | 41 | 351 | 7.8 | 11.3 | 0.00 | 0.00 | 0.00 | 55 | 1024.4 |
| 20260508040727 | 40 | 345 | 7.8 | 9.6 | 0.00 | 0.00 | 0.00 | 57 | 1024.2 |
| 20260508034727 | 38 | 350 | 7.8 | 9.6 | 0.00 | 0.00 | 0.00 | 59 | 1023.9 |
| 20260508032728 | 37 | 353 | 7.8 | 9.6 | 0.00 | 0.00 | 0.00 | 60 | 1023.6 |
| 20260508030727 | 36 | 343 | 6.1 | 7.8 | 0.00 | 0.00 | 0.00 | 62 | 1023.5 |
| 20260508024726 | 35 | 344 | 7.8 | 8.7 | 0.00 | 0.00 | 0.00 | 64 | 1023.2 |
| 20260508022727 | 35 | 343 | 7.0 | 7.8 | 0.00 | 0.00 | 0.00 | 64 | 1023.0 |
| 20260508020727 | 35 | 341 | 7.0 | 7.8 | 0.00 | 0.00 | 0.00 | 63 | 1022.8 |
| 20260508014727 | 35 | 339 | 7.8 | 7.8 | 0.00 | 0.00 | 0.00 | 64 | 1022.6 |
| 20260508012727 | 36 | 336 | 6.1 | 7.8 | 0.00 | 0.00 | 0.00 | 63 | 1022.4 |
| 20260508010727 | 37 | 339 | 7.0 | 7.8 | 0.00 | 0.00 | 0.00 | 60 | 1022.1 |
| 20260508004727 | 38 | 344 | 7.0 | 8.7 | 0.00 | 0.00 | 0.00 | 58 | 1021.9 |
| 20260508002727 | 39 | 351 | 7.8 | 9.6 | 0.00 | 0.00 | 0.00 | 56 | 1021.6 |
| 20260508000727 | 39 | 346 | 7.8 | 11.3 | 0.00 | 0.00 | 0.00 | 56 | 1021.3 |
| 20260507234726 | 38 | 337 | 7.8 | 9.6 | 0.00 | 0.00 | 0.00 | 56 | 1021.1 |
| 20260507232726 | 37 | 328 | 7.0 | 7.8 | 0.00 | 0.00 | 0.00 | 57 | 1020.9 |
| 20260507230726 | 38 | 325 | 7.0 | 7.8 | 0.00 | 0.00 | 0.00 | 56 | 1020.6 |
| 20260507224726 | 38 | 323 | 7.8 | 8.7 | 0.00 | 0.00 | 0.00 | 54 | 1020.3 |
| 20260507222727 | 40 | 322 | 7.8 | 8.7 | 0.00 | 0.00 | 0.00 | 50 | 1020.1 |
| 20260507220726 | 40 | 328 | 7.8 | 9.6 | 0.00 | 0.00 | 0.00 | 47 | 1019.9 |
| 20260507214726 | 40 | 329 | 7.0 | 7.8 | 0.00 | 0.00 | 0.00 | 47 | 1019.6 |
| 20260507212726 | 40 | 328 | 7.8 | 8.7 | 0.00 | 0.00 | 0.00 | 47 | 1019.4 |
| 20260507210726 | 40 | 327 | 7.8 | 8.7 | 0.00 | 0.00 | 0.00 | 49 | 1019.1 |
| 20260507204726 | 40 | 328 | 7.0 | 7.8 | 0.00 | 0.00 | 0.00 | 48 | 1018.8 |
| 20260507202726 | 41 | 331 | 7.8 | 8.7 | 0.00 | 0.00 | 0.00 | 43 | 1018.6 |
| 20260507194726 | 40 | 275 | 5.2 | 9.6 | 0.00 | 0.00 | 0.00 | 49 | 1018.1 |
| 20260507192726 | 41 | 278 | 3.5 | 5.2 | 0.00 | 0.00 | 0.00 | 49 | 1017.8 |
| 20260507190725 | 43 | 271 | 3.5 | 5.2 | 0.00 | 0.00 | 0.00 | 40 | 1017.5 |
| 20260507184726 | 49 | 241 | 3.5 | 5.2 | 0.00 | 0.00 | 0.00 | 31 | 1017.2 |
| 20260507182725 | 49 | 211 | 5.2 | 7.0 | 0.00 | 0.00 | 0.00 | 30 | 1017.0 |
| 20260507180725 | 49 | 202 | 6.1 | 7.8 | 0.00 | 0.00 | 0.00 | 30 | 1016.8 |
| 20260507174725 | 50 | 199 | 7.8 | 11.3 | 0.00 | 0.00 | 0.00 | 30 | 1016.8 |
| 20260507172725 | 51 | 202 | 9.6 | 12.2 | 0.00 | 0.00 | 0.00 | 29 | 1016.6 |
| 20260507170725 | 51 | 210 | 9.6 | 12.2 | 0.00 | 0.00 | 0.00 | 29 | 1016.5 |
| 20260507165054 | 52 | 203 | 11.3 | 13.9 | 0.00 | 0.00 | 0.00 | 28 | 1016.5 |
| 20260507162725 | 53 | 205 | 10.4 | 13.0 | 0.00 | 0.00 | 0.00 | 26 | 1016.3 |
| 20260507160725 | 54 | 196 | 10.4 | 13.0 | 0.00 | 0.00 | 0.00 | 27 | 1016.1 |
| 20260507154725 | 53 | 166 | 12.2 | 14.8 | 0.00 | 0.00 | 0.00 | 25 | 1016.0 |
| 20260507152724 | 54 | 179 | 10.4 | 13.9 | 0.00 | 0.00 | 0.00 | 25 | 1015.8 |
| 20260507144725 | 55 | 178 | 10.4 | 13.9 | 0.00 | 0.00 | 0.00 | 25 | 1015.8 |
| 20260507142725 | 56 | 165 | 9.6 | 14.8 | 0.00 | 0.00 | 0.00 | 22 | 1015.6 |
| 20260507140725 | 55 | 163 | 6.1 | 12.2 | 0.00 | 0.00 | 0.00 | 22 | 1015.5 |
| 20260507134724 | 55 | 144 | 7.8 | 13.0 | 0.00 | 0.00 | 0.00 | 22 | 1015.5 |
| 20260507132724 | 55 | 155 | 8.7 | 13.0 | 0.00 | 0.00 | 0.00 | 23 | 1015.5 |
| 20260507130724 | 56 | 199 | 8.7 | 13.0 | 0.00 | 0.00 | 0.00 | 22 | 1015.6 |
| 20260507122724 | 55 | 200 | 9.6 | 14.8 | 0.00 | 0.00 | 0.00 | 25 | 1015.5 |
| 20260507120724 | 56 | 152 | 9.6 | 14.8 | 0.00 | 0.00 | 0.00 | 25 | 1015.4 |